Location: Favalello
(42.2939°N, 9.2706°E)
Time: 11:07:58
(UTC+00:00)

Cosmos 1428 Rocket - Pass Details

Date: 06 December 2019
Orbit: 948 x 988 km, 82.9° (Epoch: 25 January)

Event Time Altitude Azimuth Distance (km) Brightness Sun altitude
Rises 17:46:24 0° 174° (S) 3,616 7.6 -20.7°
Reaches altitude 10° 17:48:54 10° 171° (S) 2,679 6.8 -21.2°
Maximum altitude 17:54:55 61° 93° (E) 1,086 4.4 -22.3°
Enters shadow 17:59:14 20° 19° (NNE) 2,076 5.9 -23.1°
